SP7QPD-1 Weather Reports


time (UTC)temp
C
wind
direction
speed
KPH
gust
KPH
rain 1hr
cm
rain 24hr
cm
rain mn
cm
humidity
%
barometer
mb
20260905194823 13 315 90.1 120.7 0.00 0.10 0.00 50 1013.6
20260905193823 13 315 90.1 120.7 0.00 0.25 0.00 56 1013.9
20260905192823 13 315 90.1 120.7 0.00 0.25 0.00 64 1014.0
20260905191823 13 315 90.1 120.7 0.00 0.25 0.00 65 1013.9
20260905190823 13 315 90.1 120.7 0.00 0.25 0.00 58 1013.8
20260905185823 14 315 90.1 120.7 0.00 0.25 0.00 62 1013.4
20260905184822 14 315 90.1 120.7 0.00 0.25 0.00 64 1013.0
20260905183822 14 315 90.1 120.7 0.00 0.25 0.00 66 1013.1
20260905182822 15 22 90.1 120.7 0.00 0.25 0.00 68 1013.1
20260905181822 15 315 90.1 120.7 0.00 0.25 0.00 70 1013.1
20260905180822 15 315 90.1 120.7 0.00 0.25 0.00 71 1013.1
20260905175822 16 45 90.1 120.7 0.00 0.25 0.00 69 1013.5
20260905174822 16 315 90.1 120.7 0.00 0.25 0.00 68 1012.8
20260905173822 17 315 90.1 120.7 0.00 0.25 0.00 67 1012.6
20260905172822 17 315 90.1 120.7 0.00 0.25 0.00 65 1012.5
20260905171822 17 202 90.1 120.7 0.00 0.25 0.00 64 1012.2
20260905170822 17 315 90.1 120.7 0.00 0.25 0.00 64 1012.1
20260905165821 17 315 90.1 120.7 0.00 0.25 0.00 63 1011.9
20260905164821 17 0 90.1 120.7 0.00 0.25 0.00 62 1011.9
20260905163821 18 315 90.1 120.7 0.00 0.25 0.00 60 1011.9
20260905162821 18 157 90.1 120.7 0.00 0.25 0.00 60 1011.8
20260905161821 18 315 90.1 120.7 0.00 0.25 0.00 59 1011.8
20260905160821 18 315 90.1 120.7 0.00 0.25 0.00 58 1011.7
20260905155821 18 315 90.1 120.7 0.00 0.25 0.00 58 1011.7
20260905154821 18 315 90.1 120.7 0.00 0.25 0.00 58 1011.7
20260905153821 18 0 90.1 120.7 0.00 0.25 0.00 58 1011.5
20260905152821 19 0 90.1 120.7 0.00 0.25 0.00 58 1011.4
20260905151821 19 315 90.1 120.7 0.00 0.25 0.00 58 1011.4
20260905150821 19 315 90.1 120.7 0.00 0.25 0.00 58 1011.2
20260905145820 19 112 90.1 120.7 0.00 0.25 0.00 58 1011.2
20260905144820 20 135 90.1 120.7 0.00 0.25 0.00 59 1011.2
20260905143820 19 315 90.1 120.7 0.00 0.25 0.00 58 1011.2
20260905142820 19 315 90.1 120.7 0.00 0.25 0.00 59 1011.4
20260905141820 19 315 90.1 120.7 0.00 0.25 0.00 58 1011.4
20260905140820 19 135 90.1 120.7 0.00 0.25 0.00 58 1011.4
20260905135820 19 315 90.1 120.7 0.00 0.25 0.00 58 1011.4
20260905134820 20 315 90.1 120.7 0.00 0.25 0.00 58 1011.4
20260905133820 19 315 90.1 120.7 0.00 0.25 0.00 58 1011.4
20260905132820 20 135 90.1 120.7 0.00 0.25 0.00 58 1011.3
20260905131820 20 0 90.1 120.7 0.00 0.25 0.00 57 1011.4
20260905130819 20 315 90.1 120.7 0.00 0.25 0.00 57 1011.4
20260905125819 20 315 90.1 120.7 0.00 0.25 0.00 58 1011.5
20260905124819 19 0 90.1 120.7 0.00 0.25 0.00 58 1011.4
20260905123819 19 157 90.1 120.7 0.00 0.25 0.00 58 1011.6
20260905122819 19 157 90.1 120.7 0.00 0.25 0.00 60 1011.7
20260905121819 19 135 90.1 120.7 0.00 0.25 0.00 60 1011.5
20260905120819 19 315 90.1 120.7 0.00 0.25 0.00 61 1011.5
20260905115819 19 315 90.1 120.7 0.00 0.25 0.00 61 1011.5
20260905114819 19 315 90.1 120.7 0.00 0.25 0.00 63 1011.5
20260905113819 19 315 90.1 120.7 0.00 0.25 0.00 62 1011.2
20260905112819 19 315 90.1 120.7 0.00 0.25 0.00 64 1011.3
20260905111819 18 315 90.1 120.7 0.00 0.25 0.00 65 1011.2
20260905110818 18 135 90.1 120.7 0.00 0.25 0.00 65 1011.3
20260905105818 18 0 90.1 120.7 0.00 0.25 0.00 67 1011.1
20260905104818 18 135 90.1 120.7 0.00 0.25 0.00 66 1011.2
20260905103818 18 315 90.1 120.7 0.00 0.25 0.00 67 1011.0
20260905102818 18 315 90.1 120.7 0.00 0.25 0.00 68 1011.1
20260905101818 17 315 90.1 120.7 0.00 0.25 0.00 68 1011.1
20260905100818 18 315 90.1 120.7 0.00 0.25 0.00 68 1010.9
20260905095818 18 0 90.1 120.7 0.00 0.25 0.00 67 1010.8
20260905094818 18 0 90.1 120.7 0.00 0.25 0.00 68 1010.7
20260905093818 18 315 90.1 120.7 0.00 0.25 0.00 70 1010.7
20260905092818 17 90 90.1 120.7 0.00 0.25 0.00 70 1010.8
20260905091817 17 90 90.1 120.7 0.00 0.25 0.00 71 1010.7
20260905090817 17 315 90.1 120.7 0.00 0.25 0.00 71 1010.6
20260905085817 17 315 90.1 120.7 0.00 0.25 0.00 71 1010.7
20260905084817 17 90 90.1 120.7 0.00 0.25 0.00 72 1010.7
20260905083817 17 0 90.1 120.7 0.00 0.25 0.00 71 1010.7
20260905082817 17 315 90.1 120.7 0.00 0.25 0.00 71 1010.5
20260905081817 17 315 90.1 120.7 0.00 0.25 0.00 67 1010.5
20260905080817 17 315 90.1 120.7 0.00 0.25 0.00 62 1010.4
20260905075817 17 315 90.1 120.7 0.00 0.25 0.00 59 1010.4
20260905074817 16 315 90.1 120.7 0.00 0.25 0.00 51 1010.3
20260905073817 16 0 90.1 120.7 0.00 0.25 0.00 43 1010.2
20260905072817 16 315 90.1 120.7 0.00 0.25 0.00 34 1010.1
20260905071816 16 315 90.1 120.7 0.00 0.25 0.00 27 1010.0
20260905070816 16 315 90.1 120.7 0.00 0.25 0.00 14 1010.0
20260905065816 15 315 90.1 120.7 0.00 0.25 0.00 10 1010.0
20260905064817 15 315 90.1 120.7 0.00 0.25 0.00 10 1009.9
20260905063816 15 315 90.1 120.7 0.00 0.25 0.00 10 1009.7
20260905062816 15 315 90.1 120.7 0.00 0.25 0.00 10 1009.6
20260905061816 15 315 90.1 120.7 0.00 0.25 0.00 10 1009.5
20260905060816 15 315 90.1 120.7 0.00 0.25 0.00 10 1009.3
20260905055816 15 315 90.1 120.7 0.00 0.25 0.00 10 1009.2
20260905054816 15 315 90.1 120.7 0.00 0.25 0.00 10 1009.0
20260905053816 15 315 90.1 120.7 0.00 0.25 0.00 10 1008.9
20260905052816 15 315 90.1 120.7 0.00 0.25 0.00 10 1008.9
20260905051815 15 315 90.1 120.7 0.00 0.25 0.00 10 1008.7
20260905050815 15 0 90.1 120.7 0.00 0.25 0.00 10 1008.6
20260905045815 15 315 90.1 120.7 0.00 0.25 0.00 10 1008.3
20260905044815 15 315 90.1 120.7 0.00 0.25 0.00 10 1008.4
20260905043815 15 135 90.1 120.7 0.00 0.25 0.00 10 1008.1
20260905042815 15 315 90.1 120.7 0.00 0.25 0.00 10 1008.1
20260905041815 15 135 90.1 120.7 0.00 0.25 0.00 10 1007.8
20260905040815 15 112 90.1 120.7 0.00 0.25 0.00 10 1007.6
20260905035815 15 112 90.1 120.7 0.00 0.25 0.00 10 1007.6
20260905034815 15 315 90.1 120.7 0.00 0.25 0.00 10 1007.4
20260905033814 15 315 90.1 120.7 0.00 0.25 0.00 10 1007.4
20260905032814 15 315 90.1 120.7 0.00 0.25 0.00 10 1007.1
20260905031814 15 315 90.1 120.7 0.00 0.25 0.00 10 1006.8
20260905030814 15 315 90.1 120.7 0.00 0.25 0.00 10 1007.1
20260905025814 15 315 90.1 120.7 0.00 0.25 0.00 10 1006.8
20260905024814 15 315 90.1 120.7 0.00 0.25 0.00 10 1006.7
20260905023814 15 315 90.1 120.7 0.00 0.25 0.00 10 1006.8
20260905022814 15 315 90.1 120.7 0.00 0.25 0.00 10 1006.9
20260905021814 15 315 90.1 120.7 0.00 0.25 0.00 10 1006.7
20260905020814 15 315 90.1 120.7 0.00 0.25 0.00 10 1006.4
20260905015814 15 315 90.1 120.7 0.00 0.25 0.00 10 1006.8
20260905014814 15 45 90.1 120.7 0.00 0.25 0.00 10 1006.6
20260905013813 15 315 90.1 120.7 0.00 0.25 0.00 10 1006.8
20260905012813 15 315 90.1 120.7 0.00 0.25 0.00 10 1006.1
20260905011813 15 315 90.1 120.7 0.00 0.25 0.00 10 1006.2
20260905010813 15 315 90.1 120.7 0.00 0.25 0.00 10 1006.5
20260905005813 15 315 90.1 120.7 0.00 0.25 0.00 10 1006.6
20260905004813 15 315 90.1 120.7 0.00 0.25 0.00 10 1006.4
20260905003813 15 315 90.1 120.7 0.00 0.25 0.00 10 1006.4
20260905002813 15 22 90.1 120.7 0.00 0.25 0.00 10 1006.2
20260905001813 15 315 90.1 120.7 0.05 0.25 0.00 10 1006.1
20260905000813 15 202 90.1 120.7 0.05 0.25 0.00 10 1005.6
20260904235813 16 315 90.1 120.7 0.05 0.25 0.00 10 1005.4
20260904234813 16 180 90.1 120.7 0.05 0.25 0.00 10 1005.1
20260904233812 16 315 90.1 120.7 0.05 0.25 0.00 10 1005.2
20260904232812 16 315 90.1 120.7 0.00 0.20 0.00 10 1005.3
20260904231812 16 315 90.1 120.7 0.00 0.20 0.00 10 1005.1
20260904230812 17 0 90.1 120.7 0.00 0.20 0.00 10 1004.8
20260904225812 17 315 90.1 120.7 0.00 0.20 0.00 10 1004.5
20260904224812 17 315 90.1 120.7 0.00 0.20 0.00 10 1003.6
20260904223812 17 315 90.1 120.7 0.00 0.20 0.00 10 1004.2
20260904222812 17 90 90.1 120.7 0.00 0.20 0.00 10 1003.8
20260904221812 17 90 90.1 120.7 0.00 0.20 0.00 10 1004.0
20260904220812 18 315 90.1 120.7 0.05 0.20 0.00 10 1004.1
20260904215812 18 315 90.1 120.7 0.05 0.20 0.00 10 1003.9
20260904214811 18 315 90.1 120.7 0.05 0.20 0.00 10 1004.0
20260904213811 18 315 90.1 120.7 0.05 0.20 0.00 10 1004.1
20260904212811 18 315 90.1 120.7 0.05 0.20 0.00 12 1004.3
20260904211811 18 315 90.1 120.7 0.00 0.15 0.00 17 1004.5
20260904210811 18 315 90.1 120.7 0.15 0.15 0.00 23 1004.3
20260904205811 18 315 90.1 120.7 0.15 0.15 0.00 25 1003.9
20260904204811 18 112 90.1 120.7 0.15 0.15 0.00 28 1004.4
20260904203811 19 90 90.1 120.7 0.15 0.15 0.00 36 1004.0
20260904202811 19 315 90.1 120.7 0.15 0.15 0.00 45 1003.9
20260904201811 20 337 90.1 120.7 0.10 0.10 0.00 61 1004.4
20260904200811 21 90 90.1 120.7 0.00 0.00 0.00 70 1004.0
20260904195810 22 337 90.1 120.7 0.00 0.00 0.00 68 1002.5